Simultaneous Nadir Overpasses (SNOs) Predictions

Prediction of SNOs between AQUA and METOP-A Satellite Orbit:

Table of predicted SNOs for the next 14.0 days since TLE Epoch: 4/26/2013
Index Date (AQUA) Time (AQUA) Lat,Lon (AQUA) SZA (AQUA ) Date (METOP-A) Time (METOP-A) Lat,Lon (METOP-A) SZA (METOP-A ) Distance(km) Time Diff (sec)
1 04/26/2013 14:54:50 -73.86, 130.56 119.85 04/26/2013 14:53:59 -73.88, 130.53 119.83 1.95 51
2 04/26/2013 15:44:19 73.94, -61.97 60.22 04/26/2013 15:44:38 73.94, -61.99 60.22 0.79 19
3 04/26/2013 16:33:59 -74.68, 103.92 119.00 04/26/2013 16:35:04 -74.69, 107.27 119.09 98.37 65
4 04/29/2013 10:29:04 -73.89,-163.05 120.71 04/29/2013 10:28:21 -73.90,-163.01 120.70 1.53 43
5 04/29/2013 11:18:33 73.97, 4.41 59.36 04/29/2013 11:19:00 73.96, 4.46 59.35 2.13 27
6 05/02/2013 06:03:18 -73.89, -96.61 121.57 05/02/2013 06:02:44 -73.91, -96.57 121.54 2.61 34
7 05/02/2013 06:52:47 73.98, 70.84 58.52 05/02/2013 06:53:23 73.97, 70.90 58.50 2.16 36
8 05/05/2013 01:37:32 -73.92, -30.23 122.36 05/05/2013 01:37:07 -73.92, -30.14 122.36 2.85 25
9 05/05/2013 02:27:00 73.96, 137.32 57.68 05/05/2013 02:27:46 73.98, 137.33 57.69 1.84 46
10 05/07/2013 20:22:08 73.35,-130.19 56.26 05/07/2013 20:21:01 73.30,-132.50 56.30 74.08 67
11 05/07/2013 21:11:45 -73.93, 36.20 123.13 05/07/2013 21:11:30 -73.92, 36.27 123.14 2.52 15
12 05/07/2013 22:01:13 73.97,-156.26 56.90 05/07/2013 22:02:09 73.98,-156.26 56.90 0.50 56




NCC Satellite Simultaneous Nadir Overpasses (SNOs) Prediction Service
